FW7722 Weather Reports


time (UTC)temp
F
wind
direction
speed
knots
gust
knots
rain 1hr
in
rain 24hr
in
rain mn
in
humidity
%
barometer
mb
20260506202203 68 133 2.6 2.6 0.00 0.20 0.20 77 1006.6
20260506201700 68 258 1.7 1.7 0.00 0.20 0.20 79 1006.9
20260506201156 68 161 4.3 4.3 0.00 0.20 0.20 77 1006.7
20260506200653 67 123 3.5 2.6 0.00 0.20 0.20 79 1006.9
20260506200150 66 139 3.5 2.6 0.00 0.20 0.20 79 1006.9
20260506195647 66 210 4.3 6.1 0.00 0.20 0.20 81 1006.9
20260506195143 66 142 1.7 1.7 0.00 0.20 0.20 81 1007.2
20260506194640 66 144 7.8 8.7 0.00 0.20 0.20 80 1007.0
20260506194136 66 128 2.6 4.3 0.00 0.20 0.20 81 1007.0
20260506193634 66 243 2.6 2.6 0.00 0.20 0.20 80 1007.1
20260506193131 66 160 6.1 7.8 0.00 0.20 0.20 81 1007.2
20260506192628 66 142 3.5 4.3 0.00 0.20 0.20 82 1007.1
20260506192124 65 253 3.5 4.3 0.00 0.20 0.20 83 1007.3
20260506191621 64 122 5.2 6.1 0.00 0.20 0.20 84 1007.4
20260506191117 64 256 1.7 4.3 0.00 0.20 0.20 84 1007.3
20260506190615 64 192 8.7 12.2 0.00 0.20 0.20 85 1007.6
20260506190111 63 148 3.5 4.3 0.00 0.20 0.20 85 1007.5
20260506185608 63 166 3.5 2.6 0.00 0.20 0.20 86 1007.5
20260506185104 63 145 1.7 1.7 0.00 0.20 0.20 87 1007.6
20260506184602 63 195 3.5 4.3 0.00 0.20 0.20 88 1007.9
20260506184059 62 167 1.7 2.6 0.00 0.20 0.20 88 1007.6
20260506183555 62 261 1.7 4.3 0.00 0.20 0.20 89 1007.7
20260506183052 62 176 4.3 6.1 0.00 0.20 0.20 90 1007.9
20260506182549 62 207 4.3 4.3 0.00 0.20 0.20 90 1008.0
20260506182046 62 209 0.9 1.7 0.00 0.20 0.20 89 1008.2
20260506181544 62 209 1.7 2.6 0.00 0.20 0.20 88 1007.9
20260506181041 63 130 2.6 2.6 0.00 0.20 0.20 87 1008.0
20260506180537 63 42 1.7 2.6 0.00 0.20 0.20 87 1008.1
20260506180034 63 120 4.3 4.3 0.00 0.20 0.20 86 1007.9
20260506175531 63 157 2.6 4.3 0.00 0.20 0.20 85 1007.8
20260506175027 63 132 5.2 6.1 0.00 0.20 0.20 85 1007.9
20260506174526 63 284 2.6 4.3 0.00 0.20 0.20 85 1007.7
20260506174021 63 201 2.6 4.3 0.00 0.20 0.20 86 1007.8
20260506173519 63 131 6.1 10.4 0.00 0.20 0.20 85 1007.9
20260506173016 63 126 6.1 7.8 0.00 0.20 0.20 85 1007.8
20260506172514 63 89 3.5 4.3 0.00 0.20 0.20 85 1008.0
20260506172009 63 148 3.5 6.1 0.00 0.20 0.20 87 1007.9
20260506171507 62 148 8.7 8.7 0.00 0.20 0.20 87 1008.0
20260506171005 62 136 7.8 10.4 0.00 0.20 0.20 87 1008.3
20260506170502 62 143 3.5 6.1 0.00 0.20 0.20 87 1008.3
20260506165959 62 206 5.2 6.1 0.00 0.20 0.20 88 1008.2
20260506165458 62 142 5.2 6.1 0.00 0.20 0.20 88 1008.2
20260506164948 62 165 2.6 4.3 0.00 0.20 0.20 89 1008.3
20260506164445 62 137 3.5 4.3 0.00 0.20 0.20 88 1008.2
20260506163943 62 179 2.6 2.6 0.00 0.20 0.20 89 1008.0
20260506163438 62 245 3.5 4.3 0.07 0.20 0.20 90 1008.1
20260506162932 62 130 0.9 1.7 0.07 0.20 0.20 90 1008.1
20260506162430 62 148 1.7 1.7 0.00 0.19 0.19 90 1008.0
20260506161922 62 247 1.7 1.7 0.05 0.19 0.19 92 1007.9
20260506161420 61 110 2.6 2.6 0.05 0.19 0.19 91 1008.1
20260506160917 61 209 3.5 6.1 0.00 0.18 0.18 91 1008.4
20260506160414 61 110 1.7 1.7 0.07 0.18 0.18 91 1009.0
20260506155911 61 187 3.5 6.1 0.12 0.18 0.18 91 1009.2
20260506155409 61 72 1.7 2.6 0.12 0.17 0.17 91 1009.3
20260506153531 61 104 2.6 2.6 0.12 0.14 0.14 90 1009.4
20260506153028 61 98 1.7 1.7 0.12 0.13 0.13 90 1009.3
20260506152525 62 59 1.7 1.7 0.12 0.12 0.12 90 1009.5
20260506152023 62 127 1.7 2.6 0.19 0.11 0.11 89 1009.5
20260506151520 62 75 0.9 1.7 0.19 0.10 0.10 89 1009.2
20260506151018 62 71 0.9 1.7 0.12 0.08 0.08 88 1009.4
20260506150514 62 127 1.7 1.7 0.07 0.07 0.07 88 1009.3
20260506150011 62 46 1.7 1.7 0.05 0.06 0.06 88 1009.5
20260506145508 62 97 1.7 2.6 0.05 0.06 0.06 87 1009.1
20260506145005 62 175 0.9 1.7 0.07 0.05 0.05 87 1009.5
20260506144502 62 23 1.7 2.6 0.07 0.05 0.05 87 1009.3
20260506143959 62 53 0.0 0.0 0.12 0.05 0.05 86 1009.3
20260506143456 62 123 1.7 1.7 0.12 0.04 0.04 85 1009.3
20260506142955 63 52 0.0 0.0 0.12 0.03 0.03 84 1009.4
20260506142452 63 230 0.9 1.7 0.12 0.02 0.02 83 1009.4
20260506141950 64 261 2.6 2.6 0.07 0.01 0.01 80 1009.3
20260506141448 64 133 3.5 4.3 0.00 0.00 0.00 78 1009.4
20260506140946 64 271 3.5 4.3 0.00 0.00 0.00 77 1009.4
20260506140443 65 188 4.3 6.1 0.00 0.00 0.00 77 1009.4
20260506135939 65 105 4.3 6.1 0.00 0.00 0.00 75 1009.4
20260506135437 66 159 3.5 4.3 0.00 0.00 0.00 74 1009.3
20260506134933 66 121 4.3 4.3 0.00 0.00 0.00 72 1009.1
20260506134429 67 125 2.6 4.3 0.00 0.00 0.00 73 1009.2
20260506133926 67 256 2.6 6.1 0.00 0.00 0.00 72 1008.9
20260506133423 66 143 1.7 1.7 0.00 0.00 0.00 72 1009.1
20260506132920 66 146 2.6 2.6 0.00 0.00 0.00 72 1009.2
20260506132417 66 253 4.3 6.1 0.00 0.00 0.00 72 1009.4
20260506131915 66 97 2.6 2.6 0.00 0.00 0.00 73 1009.1
20260506131411 66 150 0.9 1.7 0.00 0.00 0.00 73 1009.3
20260506130908 66 157 2.6 2.6 0.00 0.00 0.00 72 1009.3
20260506130404 66 241 4.3 4.3 0.00 0.00 0.00 71 1009.3
20260506125903 66 170 5.2 4.3 0.00 0.00 0.00 70 1009.3
20260506125401 67 221 3.5 4.3 0.00 0.00 0.00 69 1009.4
20260506124859 67 163 3.5 6.1 0.00 0.00 0.00 69 1009.7
20260506124355 67 203 1.7 2.6 0.00 0.00 0.00 69 1009.4
20260506123853 67 176 6.1 7.8 0.00 0.00 0.00 68 1009.2
20260506123351 67 95 2.6 4.3 0.00 0.00 0.00 68 1009.4
20260506122848 67 235 14.8 18.2 0.00 0.00 0.00 67 1009.4
20260506122345 67 142 7.0 12.2 0.00 0.00 0.00 69 1009.2
20260506121843 67 235 6.1 7.8 0.00 0.00 0.00 68 1009.2
20260506121340 67 137 4.3 6.1 0.00 0.00 0.00 68 1009.2
20260506120837 67 119 1.7 2.6 0.00 0.00 0.00 68 1008.8
20260506120335 67 112 4.3 6.1 0.00 0.00 0.00 68 1009.1
20260506115832 67 223 1.7 2.6 0.00 0.00 0.00 69 1008.8
20260506115330 66 173 5.2 8.7 0.00 0.00 0.00 68 1008.7
20260506114828 66 197 2.6 2.6 0.00 0.00 0.00 69 1008.8
20260506114325 66 188 4.3 4.3 0.00 0.00 0.00 69 1008.6
20260506113824 66 195 5.2 7.8 0.00 0.00 0.00 69 1008.8
20260506113321 66 139 9.6 12.2 0.00 0.00 0.00 69 1008.7
20260506112817 66 161 7.8 12.2 0.00 0.00 0.00 69 1008.8
20260506112315 66 176 5.2 7.8 0.00 0.00 0.00 69 1008.6
20260506111812 66 144 1.7 2.6 0.00 0.00 0.00 69 1008.6
20260506111310 66 160 6.1 6.1 0.00 0.00 0.00 68 1008.7
20260506110807 66 159 4.3 7.8 0.00 0.00 0.00 68 1008.7
20260506110304 66 119 6.1 8.7 0.00 0.00 0.00 69 1008.9
20260506105801 66 135 4.3 7.8 0.00 0.00 0.00 68 1008.6
20260506105257 66 122 3.5 4.3 0.00 0.00 0.00 68 1008.4
20260506104755 66 150 1.7 1.7 0.00 0.00 0.00 68 1008.5
20260506104253 66 160 8.7 13.0 0.00 0.00 0.00 68 1008.5
20260506103750 66 136 2.6 4.3 0.00 0.00 0.00 68 1008.6
20260506103247 66 106 3.5 4.3 0.00 0.00 0.00 67 1008.6
20260506102745 67 116 0.9 1.7 0.00 0.00 0.00 67 1008.4
20260506102242 67 144 4.3 6.1 0.00 0.00 0.00 67 1008.5
20260506101739 67 129 3.5 6.1 0.00 0.00 0.00 67 1008.5
20260506101236 67 148 6.1 7.8 0.00 0.00 0.00 66 1008.4
20260506100734 67 154 3.5 4.3 0.00 0.00 0.00 66 1008.3
20260506100231 67 199 5.2 6.1 0.00 0.00 0.00 66 1008.5
20260506095730 67 273 3.5 6.1 0.00 0.00 0.00 66 1008.4
20260506095226 67 110 1.7 1.7 0.00 0.00 0.00 66 1008.7
20260506094723 67 136 5.2 6.1 0.00 0.00 0.00 66 1008.5
20260506094221 67 130 0.9 1.7 0.00 0.00 0.00 66 1008.6
20260506093720 67 152 2.6 4.3 0.00 0.00 0.00 66 1008.5
20260506093216 67 155 2.6 2.6 0.00 0.00 0.00 66 1008.3
20260506092714 67 213 4.3 6.1 0.00 0.00 0.00 66 1008.3
20260506092212 67 142 2.6 2.6 0.00 0.00 0.00 66 1008.4
20260506091709 67 137 4.3 6.1 0.00 0.00 0.00 66 1008.4
20260506091206 67 55 4.3 7.8 0.00 0.00 0.00 66 1008.3
20260506090704 67 150 3.5 7.8 0.00 0.00 0.00 66 1008.5
20260506090200 67 115 5.2 4.3 0.00 0.00 0.00 66 1008.5
20260506085657 67 119 1.7 2.6 0.00 0.00 0.00 66 1008.5
20260506085153 67 194 5.2 6.1 0.00 0.00 0.00 67 1008.5
20260506084650 67 100 3.5 2.6 0.00 0.00 0.00 66 1008.8
20260506084147 67 199 4.3 6.1 0.00 0.00 0.00 66 1008.5
20260506083644 68 153 3.5 4.3 0.00 0.00 0.00 66 1008.5
20260506083141 67 134 1.7 2.6 0.00 0.00 0.00 66 1008.5
20260506082639 68 124 2.6 4.3 0.00 0.00 0.00 66 1008.6
20260506082134 68 158 3.5 4.3 0.00 0.00 0.00 66 1008.5
20260506081632 68 172 6.1 8.7 0.00 0.00 0.00 66 1008.4
20260506081130 68 137 6.1 8.7 0.00 0.00 0.00 66 1008.7
20260506080627 68 152 4.3 4.3 0.00 0.00 0.00 65 1008.6
20260506080124 68 77 5.2 7.8 0.00 0.00 0.00 65 1008.6
20260506073108 68 107 4.3 6.1 0.00 0.00 0.00 64 1008.7
20260506072604 68 112 3.5 4.3 0.00 0.00 0.00 63 1008.8
20260506072102 68 137 3.5 4.3 0.00 0.00 0.00 63 1008.9
20260506071600 68 173 6.1 7.8 0.00 0.00 0.00 63 1008.8
20260506071057 68 156 2.6 2.6 0.00 0.00 0.00 63 1008.8
20260506070554 68 135 3.5 4.3 0.00 0.00 0.00 63 1008.8
20260506062028 68 323 1.7 2.6 0.00 0.00 0.00 60 1009.3
20260506061529 68 159 3.5 2.6 0.00 0.00 0.00 60 1009.5
20260506061027 68 165 5.2 6.1 0.00 0.00 0.00 60 1009.4
20260506060525 68 153 1.7 1.7 0.00 0.00 0.00 60 1009.4
20260506050954 68 106 1.7 2.6 0.00 0.00 0.00 58 1009.9
20260506050452 68 104 1.7 1.7 0.00 0.00 0.00 58 1009.9
20260506044942 68 38 1.7 1.7 0.00 0.00 0.00 58 1009.9
20260506044440 68 89 1.7 1.7 0.00 0.00 0.00 58 1010.0
20260506043936 68 113 1.7 2.6 0.00 0.00 0.00 57 1009.9
20260506043434 68 114 0.9 1.7 0.00 0.00 0.00 57 1010.0
20260506042932 68 98 0.9 1.7 0.00 0.00 0.00 57 1010.0
20260506042431 68 97 2.6 2.6 0.00 0.00 0.00 57 1009.8
20260506041929 68 132 1.7 1.7 0.00 0.00 0.00 57 1010.1
20260506041426 68 132 1.7 1.7 0.00 0.00 0.00 57 1009.9
20260506040923 68 132 1.7 1.7 0.00 0.00 0.00 56 1009.9
20260506040421 68 134 2.6 2.6 0.00 0.00 0.00 56 1010.0
20260506035916 69 133 0.9 1.7 0.00 0.00 0.00 55 1010.0
20260506035415 69 133 1.7 1.7 0.00 0.00 0.00 55 1009.9
20260506034911 69 136 1.7 1.7 0.00 0.00 0.00 55 1009.8
20260506034408 69 105 1.7 1.7 0.00 0.00 0.00 54 1009.8
20260506033905 69 100 2.6 4.3 0.00 0.00 0.00 53 1009.9
20260506033402 69 71 1.7 2.6 0.00 0.00 0.00 53 1009.8
20260506032859 70 72 1.7 1.7 0.00 0.00 0.00 52 1009.8
20260506032355 70 116 1.7 1.7 0.00 0.00 0.00 51 1009.6
20260506031852 71 82 1.7 1.7 0.00 0.00 0.00 51 1009.6
20260506031350 70 94 4.3 6.1 0.00 0.00 0.00 50 1009.8
20260506030848 70 160 3.5 2.6 0.00 0.00 0.00 51 1009.6
20260506030346 70 178 1.7 1.7 0.00 0.00 0.00 51 1009.7
20260506025842 71 108 1.7 2.6 0.00 0.00 0.00 50 1009.7
20260506025338 71 116 0.9 1.7 0.00 0.00 0.00 49 1009.7
20260506024835 71 108 2.6 2.6 0.00 0.00 0.00 49 1009.5
20260506024332 71 145 0.9 2.6 0.00 0.00 0.00 48 1009.5
20260506023828 71 134 2.6 2.6 0.00 0.00 0.00 47 1009.7
20260506023325 71 143 1.7 1.7 0.00 0.00 0.00 48 1009.8
20260506022822 71 134 1.7 2.6 0.00 0.00 0.00 47 1009.8
20260506022320 72 173 1.7 1.7 0.00 0.00 0.00 46 1009.8
20260506021818 72 193 1.7 2.6 0.00 0.00 0.00 46 1009.6
20260506021314 72 137 1.7 2.6 0.00 0.00 0.00 46 1009.7
20260506020811 72 80 1.7 2.6 0.00 0.00 0.00 45 1009.8
20260506020309 73 107 1.7 2.6 0.00 0.00 0.00 44 1009.7
20260506015807 73 83 1.7 1.7 0.00 0.00 0.00 43 1009.7
20260506015306 73 120 1.7 1.7 0.00 0.00 0.00 43 1009.5
20260506014800 73 105 2.6 2.6 0.00 0.00 0.00 43 1009.6
20260506014257 73 149 3.5 4.3 0.00 0.00 0.00 42 1009.6
20260506013754 73 94 0.9 1.7 0.00 0.00 0.00 42 1009.5
20260506013251 74 132 2.6 2.6 0.00 0.00 0.00 42 1009.5
20260506012748 74 127 1.7 2.6 0.00 0.00 0.00 42 1009.4
20260506012245 74 153 3.5 2.6 0.00 0.00 0.00 41 1009.4
20260506011742 74 137 3.5 4.3 0.00 0.00 0.00 41 1009.4
20260506011238 74 149 2.6 2.6 0.00 0.00 0.00 41 1009.3
20260506010737 75 138 5.2 8.7 0.00 0.00 0.00 40 1009.0
20260506010233 75 129 3.5 4.3 0.00 0.00 0.00 40 1009.1
20260506005731 75 88 0.9 1.7 0.00 0.00 0.00 40 1009.0
20260506005228 75 96 3.5 6.1 0.00 0.00 0.00 40 1009.2
20260506004723 76 169 3.5 2.6 0.00 0.00 0.00 39 1008.8
20260506004221 76 95 2.6 2.6 0.00 0.00 0.00 39 1009.0
20260506003717 75 144 6.1 7.8 0.00 0.00 0.00 38 1008.9
20260506003213 75 120 2.6 2.6 0.00 0.00 0.00 38 1008.9
20260506002710 76 154 1.7 2.6 0.00 0.00 0.00 37 1008.9
20260506002206 76 143 1.7 1.7 0.00 0.00 0.00 36 1008.6
20260506001702 76 113 3.5 4.3 0.00 0.00 0.00 36 1008.6
20260506001159 77 150 3.5 2.6 0.00 0.00 0.00 36 1008.6
20260506000656 77 184 3.5 4.3 0.00 0.00 0.00 36 1008.5
20260506000154 77 152 2.6 4.3 0.00 0.00 0.00 36 1008.6
20260505235652 77 353 0.9 1.7 0.00 0.00 0.00 36 1008.6
20260505235149 77 213 1.7 2.6 0.00 0.00 0.00 36 1008.4
20260505234645 77 105 4.3 4.3 0.00 0.00 0.00 35 1008.7
20260505234142 78 245 2.6 4.3 0.00 0.00 0.00 35 1008.6
20260505233639 78 168 2.6 4.3 0.00 0.00 0.00 35 1008.3
20260505233137 78 173 1.7 1.7 0.00 0.00 0.00 35 1008.5
20260505232634 78 142 2.6 2.6 0.00 0.00 0.00 35 1008.6
20260505232131 78 166 4.3 4.3 0.00 0.00 0.00 34 1008.3
20260505231628 78 254 2.6 2.6 0.00 0.00 0.00 34 1008.4
20260505231127 78 134 5.2 6.1 0.00 0.00 0.00 35 1008.5
20260505230625 78 233 2.6 4.3 0.00 0.00 0.00 35 1008.2
20260505230120 78 139 5.2 6.1 0.00 0.00 0.00 34 1008.2
20260505225617 79 173 5.2 7.8 0.00 0.00 0.00 35 1008.1
20260505225113 79 173 4.3 6.1 0.00 0.00 0.00 34 1008.2
20260505224610 79 128 1.7 2.6 0.00 0.00 0.00 35 1008.2
20260505224108 79 89 1.7 1.7 0.00 0.00 0.00 34 1008.2
20260505223605 79 158 4.3 4.3 0.00 0.00 0.00 33 1008.4
20260505223101 80 134 4.3 6.1 0.00 0.00 0.00 33 1008.4
20260505222558 80 150 2.6 2.6 0.00 0.00 0.00 32 1008.2
20260505222054 80 192 3.5 2.6 0.00 0.00 0.00 32 1008.3
20260505221551 81 188 3.5 6.1 0.00 0.00 0.00 31 1008.3
20260505221047 81 158 3.5 4.3 0.00 0.00 0.00 31 1008.1
20260505220544 81 261 5.2 6.1 0.00 0.00 0.00 30 1008.2
20260505220042 80 159 5.2 7.8 0.00 0.00 0.00 32 1008.1
20260505215540 79 213 4.3 4.3 0.00 0.00 0.00 32 1007.9
20260505215037 80 106 2.6 2.6 0.00 0.00 0.00 33 1008.0
20260505214535 80 148 3.5 4.3 0.00 0.00 0.00 33 1007.9
20260505214032 80 258 4.3 6.1 0.00 0.00 0.00 32 1008.0
20260505213530 80 142 2.6 2.6 0.00 0.00 0.00 32 1008.1
20260505213026 80 136 3.5 4.3 0.00 0.00 0.00 31 1008.0
20260505212522 80 156 7.8 8.7 0.00 0.00 0.00 31 1007.8
20260505212020 80 130 6.1 7.8 0.00 0.00 0.00 30 1007.8
20260505211517 81 121 7.8 10.4 0.00 0.00 0.00 30 1008.0
20260505211013 81 163 3.5 4.3 0.00 0.00 0.00 33 1007.9
20260505210510 81 179 10.4 14.8 0.00 0.00 0.00 30 1007.7
20260505210007 82 193 6.1 8.7 0.00 0.00 0.00 30 1008.1
20260505205505 82 245 5.2 6.1 0.00 0.00 0.00 30 1008.2
20260505205002 82 146 7.8 8.7 0.00 0.00 0.00 29 1008.2
20260505204500 82 278 6.1 8.7 0.00 0.00 0.00 29 1007.8
20260505203957 82 189 6.1 7.8 0.00 0.00 0.00 31 1008.1
20260505203453 82 183 6.1 7.8 0.00 0.00 0.00 32 1008.0
20260505202950 82 163 8.7 10.4 0.00 0.00 0.00 30 1008.0
20260505202447 82 240 8.7 10.4 0.00 0.00 0.00 29 1008.1